Location: Waning Moon II Observatory
(30.3730°N, 89.7620°W)
Time: 00:26:59
(UTC-05:00)

Meteor 1-21 - Visible Passes

Search period start: 25 September 2016 00:00
Search period end: 05 October 2016 00:00
Orbit: 843 x 889 km, 81.2° (Epoch: 24 September)

Date Brightness Start Highest point End Pass type
(mag) Time Alt. Az. Time Alt. Az. Time Alt. Az.
25 Sep 7.6 05:32:00 10° ESE 05:34:26 13° E 05:36:52 10° ENE visible
26 Sep 7.5 05:24:36 10° ESE 05:27:06 13° E 05:29:37 10° ENE visible
27 Sep 7.5 05:17:12 10° ESE 05:19:47 13° E 05:22:22 10° ENE visible
28 Sep 7.4 05:09:49 10° ESE 05:12:28 13° E 05:15:07 10° ENE visible
29 Sep 7.4 05:02:26 10° ESE 05:05:08 14° E 05:07:52 10° ENE visible
30 Sep 7.3 04:55:03 10° ESE 04:57:49 14° E 05:00:37 10° ENE visible
01 Oct 7.3 04:47:40 10° ESE 04:50:30 14° E 04:53:21 10° NE visible
02 Oct 7.2 04:40:17 10° ESE 04:43:11 14° E 04:46:06 10° NE visible
02 Oct 4.4 06:20:12 10° SSW 06:25:49 55° W 06:31:31 10° N visible
03 Oct 7.2 04:32:54 10° ESE 04:35:52 14° E 04:38:50 10° NE visible
03 Oct 4.4 06:12:53 10° SSW 06:18:30 55° W 06:24:12 10° N visible
04 Oct 7.1 04:25:32 10° ESE 04:28:33 15° E 04:31:34 10° NE visible
04 Oct 4.4 06:05:35 10° SSW 06:11:11 54° W 06:16:53 10° N visible
